This is the latest recevied weather packets stored in our database for station/object N0EDB-13. If no packets are shown the sender has not sent any weather packets the latest 1 day(s).
| Time | Temp. | Humidity | Pressure | Rain* | Wind** | Luminosity | Snow |
|---|---|---|---|---|---|---|---|
| 1777971364 | 6.11° C | 88% | 1509.5 hPa | 0 mm | 1.34 m/s, 319° | 0 W/m² | - |
| 1777971064 | 6.11° C | 88% | 1509.5 hPa | 0 mm | 1.34 m/s, 295° | 0 W/m² | - |
| 1777970763 | 6.11° C | 87% | 1509.4 hPa | 0.25 mm | 1.34 m/s, 282° | 0 W/m² | - |
| 1777970463 | 6.11° C | 87% | 1509.2 hPa | 0.25 mm | 2.24 m/s, 280° | 0 W/m² | - |
| 1777970163 | 6.11° C | 87% | 1509.1 hPa | 0.25 mm | 1.34 m/s, 315° | 0 W/m² | - |
| 1777969862 | 6.11° C | 87% | 1509.1 hPa | 0.25 mm | 1.34 m/s, 288° | 0 W/m² | - |
| 1777969561 | 6.11° C | 88% | 1509.3 hPa | 0.25 mm | 0.89 m/s, 298° | 0 W/m² | - |
| 1777969260 | 6.11° C | 89% | 1509.2 hPa | 0.25 mm | 1.34 m/s, 290° | 0 W/m² | - |
| 1777968959 | 6.11° C | 89% | 1509.2 hPa | 0.25 mm | 1.34 m/s, 307° | 0 W/m² | - |
| 1777968659 | 6.11° C | 90% | 1509 hPa | 0.25 mm | 1.79 m/s, 306° | 0 W/m² | - |
| 1777968358 | 6.67° C | 90% | 1508.7 hPa | 0.25 mm | 0.45 m/s, 286° | 0 W/m² | - |
| 1777968057 | 6.67° C | 90% | 1508.5 hPa | 0.51 mm | 1.34 m/s, 332° | 0 W/m² | - |
| 1777967756 | 6.67° C | 90% | 1508.5 hPa | 0.51 mm | 1.79 m/s, 326° | 0 W/m² | - |
| 1777967456 | 6.67° C | 90% | 1508.6 hPa | 0.51 mm | 1.79 m/s, 302° | 0 W/m² | - |
| 1777967155 | 6.67° C | 90% | 1508.4 hPa | 0.51 mm | 1.34 m/s, 298° | 0 W/m² | - |
| 1777966855 | 6.67° C | 90% | 1508.2 hPa | 0.51 mm | 1.79 m/s, 298° | 0 W/m² | - |
| 1777966554 | 6.67° C | 90% | 1508 hPa | 0.51 mm | 1.34 m/s, 302° | 0 W/m² | - |
| 1777966254 | 6.67° C | 89% | 1507.7 hPa | 0.51 mm | 1.79 m/s, 293° | 0 W/m² | - |
| 1777965953 | 6.67° C | 89% | 1507.2 hPa | 0.51 mm | 1.34 m/s, 301° | 0 W/m² | - |
| 1777965652 | 7.22° C | 88% | 1506.5 hPa | 0.51 mm | 1.34 m/s, 302° | 0 W/m² | - |
| 1777965352 | 7.22° C | 89% | 1505.6 hPa | 0.51 mm | 1.34 m/s, 294° | 0 W/m² | - |
| 1777965051 | 7.78° C | 88% | 1504.5 hPa | 0.51 mm | 1.34 m/s, 289° | 0 W/m² | - |
| 1777964750 | 8.33° C | 88% | 1502.8 hPa | 0.51 mm | 0.89 m/s, 313° | 0 W/m² | - |
| 1777964449 | 8.89° C | 86% | 1500.9 hPa | 0.25 mm | 1.34 m/s, 290° | 0 W/m² | - |
| 1777964149 | 9.44° C | 87% | 1499.5 hPa | 0 mm | 1.79 m/s, 284° | 0 W/m² | - |
* Rain latest hour (hover to see other rain measurements)
** Current wind speed in m/s (hover to see current wind gust speed)